Home   Weather   Al Ain   Past weeks

Flag for United Arab Emirates Past Weather in Al Ain, Abu Dhabi, United Arab Emirates — Yesterday and Last 2 Weeks

Now
75 °F

Sunny.


Feels Like: 76 °F
Forecast: 78 / 98 °F
Wind: 3 mph from Northeast

Location: Al Ain International Airport

Current Time: Oct 1, 2016 at 7:20:58 AM

Latest Report: Oct 1, 2016 at 7:00 AM


Visibility: 10 mi

Pressure: 29.77 "Hg

Humidity: 78%

Dew Point: 68 °F

Location of Al AinLocation

Past Weather in Al Ain — Graph

°F

Al Ain Temperature Yesterday

Maximum temperature yesterday: 99 °F (at 3:00 PM)
Minimum temperature yesterday: 79 °F (at 6:00 AM)
Average temperature yesterday: 88 °F

High & Low Weather Summary for the Past Weeks

 TemperatureHumidityPressure
High106 °F (Sep 18, 3:00 PM)100% (Sep 18, 4:00 AM)29.89 "Hg (Sep 18, 4:00 AM)
Low75 °F (Oct 1, 6:00 AM)12% (Sep 18, 7:00 PM)29.62 "Hg (Sep 24, 4:00 PM)
Average91 °F50%29.74 "Hg
* Reported Sep 16 6:00 AM — Oct 1 6:00 AM, Al Ain, Weather by CustomWeather, © 2016

Note: Actual official high and low records may vary slightly from our data, if they occured in-between our weather recording intervals... More about our weather records

Advertising

Al Ain Weather History for the Previous 24 Hours

Scroll right to see more
 ConditionsComfort  
Time TempWeatherWind HumidityBarometerVisibility
6:00 AM
Sat, Oct 1
75 °FClear.3 mph78%29.74 "Hg10 mi
5:00 AM77 °FClear.3 mph74%29.74 "Hg10 mi
4:00 AM79 °FClear.2 mph70%29.74 "Hg10 mi
3:00 AM79 °FClear.2 mph70%29.74 "Hg10 mi
2:00 AM81 °FClear.1 mph66%29.74 "Hg10 mi
1:00 AM81 °FClear.2 mph66%29.74 "Hg10 mi
12:00 AM82 °FClear.5 mph62%29.77 "Hg10 mi
11:00 PM
Fri, Sep 30
82 °FClear.3 mph62%29.77 "Hg10 mi
10:00 PM84 °FClear.5 mph58%29.77 "Hg10 mi
9:00 PM86 °FClear.8 mph55%29.74 "Hg10 mi
8:00 PM88 °FClear.12 mph49%29.74 "Hg10 mi
7:00 PM90 °FClear.14 mph43%29.71 "Hg10 mi
6:00 PM93 °FSunny.15 mph39%29.68 "Hg10 mi
5:00 PM97 °FSunny.12 mph25%29.68 "Hg10 mi
4:00 PM99 °FPassing clouds.14 mph25%29.68 "HgN/A
3:00 PM99 °FPassing clouds.12 mph24%29.68 "HgN/A
2:00 PM97 °FSunny.12 mph27%29.71 "Hg10 mi
1:00 PM95 °FPassing clouds.10 mph30%29.74 "HgN/A
12:00 PM93 °FSunny.12 mph36%29.77 "Hg10 mi
11:00 AM91 °FPassing clouds.7 mph38%29.80 "HgN/A
10:00 AM90 °FSunny.9 mph43%29.80 "Hg10 mi
9:00 AM88 °FSunny.2 mph52%29.80 "Hg10 mi
8:00 AM84 °FClear.2 mph58%29.77 "Hg6 mi
7:00 AM81 °FClear.2 mph70%29.77 "Hg4 mi
Weather by CustomWeather, © 2016

See weather overviewHow to use our weather pages